owner,sensor,date,latitude,longitude,sea_surface_height_above_sea_level,qcFlag 
TCOON,ioos:station:TCOON:524:1,2019-05-01T00:24:00Z,29.8672,-93.9310,2.083,11111222 
TCOON,ioos:station:TCOON:524:1,2019-05-01T01:24:00Z,29.8672,-93.9310,2.093,11111222 
TCOON,ioos:station:TCOON:524:1,2019-05-01T02:24:00Z,29.8672,-93.9310,2.037,11111222 
TCOON,ioos:station:TCOON:524:1,2019-05-01T03:24:00Z,29.8672,-93.9310,2.017,11111222 
TCOON,ioos:station:TCOON:524:1,2019-05-01T04:24:00Z,29.8672,-93.9310,2.045,11111222 
TCOON,ioos:station:TCOON:524:1,2019-05-01T05:48:00Z,29.8672,-93.9310,2.046,11111222 
TCOON,ioos:station:TCOON:524:1,2019-05-01T06:24:00Z,29.8672,-93.9310,2.066,11111222 
TCOON,ioos:station:TCOON:524:1,2019-05-01T07:24:00Z,29.8672,-93.9310,2.093,11111222 
TCOON,ioos:station:TCOON:524:1,2019-05-01T08:24:00Z,29.8672,-93.9310,2.091,11111222 
TCOON,ioos:station:TCOON:524:1,2019-05-01T09:24:00Z,29.8672,-93.9310,2.121,11111222 
TCOON,ioos:station:TCOON:524:1,2019-05-01T10:24:00Z,29.8672,-93.9310,2.082,11111222 
TCOON,ioos:station:TCOON:524:1,2019-05-01T11:24:00Z,29.8672,-93.9310,2.054,11111222 
TCOON,ioos:station:TCOON:524:1,2019-05-01T12:24:00Z,29.8672,-93.9310,2.021,11111222 
TCOON,ioos:station:TCOON:524:1,2019-05-01T13:24:00Z,29.8672,-93.9310,1.983,11111222 
TCOON,ioos:station:TCOON:524:1,2019-05-01T14:24:00Z,29.8672,-93.9310,1.991,11111222 
TCOON,ioos:station:TCOON:524:1,2019-05-01T15:24:00Z,29.8672,-93.9310,1.95,11111222 
TCOON,ioos:station:TCOON:524:1,2019-05-01T16:24:00Z,29.8672,-93.9310,1.953,11111222 
TCOON,ioos:station:TCOON:524:1,2019-05-01T17:24:00Z,29.8672,-93.9310,1.994,11111222 
TCOON,ioos:station:TCOON:524:1,2019-05-01T18:24:00Z,29.8672,-93.9310,2.047,11111222 
TCOON,ioos:station:TCOON:524:1,2019-05-01T19:24:00Z,29.8672,-93.9310,2.117,11111222 
TCOON,ioos:station:TCOON:524:1,2019-05-01T20:24:00Z,29.8672,-93.9310,2.098,11111222 
TCOON,ioos:station:TCOON:524:1,2019-05-01T21:24:00Z,29.8672,-93.9310,2.138,11111222 
TCOON,ioos:station:TCOON:524:1,2019-05-01T22:24:00Z,29.8672,-93.9310,2.097,11111222 
TCOON,ioos:station:TCOON:524:1,2019-05-01T23:24:00Z,29.8672,-93.9310,2.079,11111222 
TCOON,ioos:station:TCOON:524:1,2019-05-02T00:24:00Z,29.8672,-93.9310,1.985,11111222 
TCOON,ioos:station:TCOON:524:1,2019-05-02T01:24:00Z,29.8672,-93.9310,2.0,11111222 
TCOON,ioos:station:TCOON:524:1,2019-05-02T02:24:00Z,29.8672,-93.9310,1.969,11111222 
TCOON,ioos:station:TCOON:524:1,2019-05-02T03:24:00Z,29.8672,-93.9310,2.0,11111222 
TCOON,ioos:station:TCOON:524:1,2019-05-02T04:24:00Z,29.8672,-93.9310,1.974,11111222 
TCOON,ioos:station:TCOON:524:1,2019-05-02T05:24:00Z,29.8672,-93.9310,2.043,11111222 
TCOON,ioos:station:TCOON:524:1,2019-05-02T06:24:00Z,29.8672,-93.9310,2.116,11111222 
TCOON,ioos:station:TCOON:524:1,2019-05-02T07:24:00Z,29.8672,-93.9310,2.11,11111222 
TCOON,ioos:station:TCOON:524:1,2019-05-02T08:24:00Z,29.8672,-93.9310,2.14,11111222 
TCOON,ioos:station:TCOON:524:1,2019-05-02T09:24:00Z,29.8672,-93.9310,2.112,11111222 
TCOON,ioos:station:TCOON:524:1,2019-05-02T10:24:00Z,29.8672,-93.9310,2.118,11111222 
TCOON,ioos:station:TCOON:524:1,2019-05-02T11:24:00Z,29.8672,-93.9310,2.099,11111222 
TCOON,ioos:station:TCOON:524:1,2019-05-02T12:24:00Z,29.8672,-93.9310,2.071,11111222 
TCOON,ioos:station:TCOON:524:1,2019-05-02T13:24:00Z,29.8672,-93.9310,2.013,11111222 
TCOON,ioos:station:TCOON:524:1,2019-05-02T14:30:00Z,29.8672,-93.9310,2.025,11111222 
TCOON,ioos:station:TCOON:524:1,2019-05-02T15:24:00Z,29.8672,-93.9310,1.932,11111222 
TCOON,ioos:station:TCOON:524:1,2019-05-02T16:24:00Z,29.8672,-93.9310,2.029,11111222 
TCOON,ioos:station:TCOON:524:1,2019-05-02T17:30:00Z,29.8672,-93.9310,1.944,11111222 
TCOON,ioos:station:TCOON:524:1,2019-05-02T18:24:00Z,29.8672,-93.9310,1.912,11111222 
TCOON,ioos:station:TCOON:524:1,2019-05-02T19:24:00Z,29.8672,-93.9310,1.967,11111222 
TCOON,ioos:station:TCOON:524:1,2019-05-02T20:30:00Z,29.8672,-93.9310,1.955,11111222 
TCOON,ioos:station:TCOON:524:1,2019-05-02T21:24:00Z,29.8672,-93.9310,1.998,11111222 
TCOON,ioos:station:TCOON:524:1,2019-05-02T22:24:00Z,29.8672,-93.9310,1.926,11111222 
TCOON,ioos:station:TCOON:524:1,2019-05-02T23:24:00Z,29.8672,-93.9310,1.97,11111222 
TCOON,ioos:station:TCOON:524:1,2019-05-03T00:24:00Z,29.8672,-93.9310,1.952,11111222 
TCOON,ioos:station:TCOON:524:1,2019-05-03T01:24:00Z,29.8672,-93.9310,1.916,11111222 
TCOON,ioos:station:TCOON:524:1,2019-05-03T02:24:00Z,29.8672,-93.9310,1.934,11111222 
TCOON,ioos:station:TCOON:524:1,2019-05-03T03:24:00Z,29.8672,-93.9310,1.817,11111222 
TCOON,ioos:station:TCOON:524:1,2019-05-03T04:24:00Z,29.8672,-93.9310,1.845,11111222 
TCOON,ioos:station:TCOON:524:1,2019-05-03T05:24:00Z,29.8672,-93.9310,1.843,11111222 
TCOON,ioos:station:TCOON:524:1,2019-05-03T06:24:00Z,29.8672,-93.9310,1.824,11111222 
TCOON,ioos:station:TCOON:524:1,2019-05-03T07:24:00Z,29.8672,-93.9310,1.885,11111222 
TCOON,ioos:station:TCOON:524:1,2019-05-03T08:24:00Z,29.8672,-93.9310,1.927,11111222 
TCOON,ioos:station:TCOON:524:1,2019-05-03T09:24:00Z,29.8672,-93.9310,1.978,11111222 
TCOON,ioos:station:TCOON:524:1,2019-05-03T10:24:00Z,29.8672,-93.9310,2.007,11111222 
TCOON,ioos:station:TCOON:524:1,2019-05-03T11:24:00Z,29.8672,-93.9310,1.991,11111222 
TCOON,ioos:station:TCOON:524:1,2019-05-03T12:24:00Z,29.8672,-93.9310,2.004,11111222 
TCOON,ioos:station:TCOON:524:1,2019-05-03T13:30:00Z,29.8672,-93.9310,2.021,11111222 
TCOON,ioos:station:TCOON:524:1,2019-05-03T14:24:00Z,29.8672,-93.9310,2.008,11111222 
TCOON,ioos:station:TCOON:524:1,2019-05-03T15:24:00Z,29.8672,-93.9310,1.928,11111222 
TCOON,ioos:station:TCOON:524:1,2019-05-03T16:24:00Z,29.8672,-93.9310,1.933,11111222 
TCOON,ioos:station:TCOON:524:1,2019-05-03T17:30:00Z,29.8672,-93.9310,1.945,11111222 
TCOON,ioos:station:TCOON:524:1,2019-05-03T18:30:00Z,29.8672,-93.9310,1.956,11111222 
TCOON,ioos:station:TCOON:524:1,2019-05-03T19:24:00Z,29.8672,-93.9310,1.942,11111222 
TCOON,ioos:station:TCOON:524:1,2019-05-03T20:24:00Z,29.8672,-93.9310,1.956,11111222 
TCOON,ioos:station:TCOON:524:1,2019-05-03T21:30:00Z,29.8672,-93.9310,1.993,11111222 
TCOON,ioos:station:TCOON:524:1,2019-05-03T22:30:00Z,29.8672,-93.9310,1.964,11111222 
TCOON,ioos:station:TCOON:524:1,2019-05-03T23:24:00Z,29.8672,-93.9310,1.99,11111222 
TCOON,ioos:station:TCOON:524:1,2019-05-04T00:24:00Z,29.8672,-93.9310,1.951,11111222 
TCOON,ioos:station:TCOON:524:1,2019-05-04T01:24:00Z,29.8672,-93.9310,1.915,11111222 
TCOON,ioos:station:TCOON:524:1,2019-05-04T02:24:00Z,29.8672,-93.9310,1.887,11111222 
TCOON,ioos:station:TCOON:524:1,2019-05-04T03:30:00Z,29.8672,-93.9310,1.732,11111222 
TCOON,ioos:station:TCOON:524:1,2019-05-04T04:24:00Z,29.8672,-93.9310,1.775,11111222 
TCOON,ioos:station:TCOON:524:1,2019-05-04T05:24:00Z,29.8672,-93.9310,1.854,11111222 
TCOON,ioos:station:TCOON:524:1,2019-05-04T06:24:00Z,29.8672,-93.9310,1.796,11111222 
TCOON,ioos:station:TCOON:524:1,2019-05-04T07:24:00Z,29.8672,-93.9310,1.786,11111222 
TCOON,ioos:station:TCOON:524:1,2019-05-04T08:24:00Z,29.8672,-93.9310,1.94,11111222 
TCOON,ioos:station:TCOON:524:1,2019-05-04T09:24:00Z,29.8672,-93.9310,2.073,11111222 
TCOON,ioos:station:TCOON:524:1,2019-05-04T10:24:00Z,29.8672,-93.9310,7.749,11113222 
TCOON,ioos:station:TCOON:524:1,2019-05-04T11:24:00Z,29.8672,-93.9310,7.749,11113222 
TCOON,ioos:station:TCOON:524:1,2019-05-04T12:24:00Z,29.8672,-93.9310,7.749,11113222 
TCOON,ioos:station:TCOON:524:1,2019-05-04T13:24:00Z,29.8672,-93.9310,7.749,11113222 
TCOON,ioos:station:TCOON:524:1,2019-05-04T14:24:00Z,29.8672,-93.9310,7.749,11113222 
TCOON,ioos:station:TCOON:524:1,2019-05-04T15:24:00Z,29.8672,-93.9310,2.0,11111222 
TCOON,ioos:station:TCOON:524:1,2019-05-04T16:24:00Z,29.8672,-93.9310,1.839,11111222 
TCOON,ioos:station:TCOON:524:1,2019-05-04T17:24:00Z,29.8672,-93.9310,1.878,11111222 
TCOON,ioos:station:TCOON:524:1,2019-05-04T18:24:00Z,29.8672,-93.9310,1.928,11111222 
TCOON,ioos:station:TCOON:524:1,2019-05-04T19:24:00Z,29.8672,-93.9310,1.931,11111222 
TCOON,ioos:station:TCOON:524:1,2019-05-04T20:24:00Z,29.8672,-93.9310,1.905,11111222 
TCOON,ioos:station:TCOON:524:1,2019-05-04T21:24:00Z,29.8672,-93.9310,1.906,11111222 
TCOON,ioos:station:TCOON:524:1,2019-05-04T22:24:00Z,29.8672,-93.9310,1.863,11111222 
TCOON,ioos:station:TCOON:524:1,2019-05-04T23:24:00Z,29.8672,-93.9310,1.81,11111222 
TCOON,ioos:station:TCOON:524:1,2019-05-05T00:24:00Z,29.8672,-93.9310,1.783,11111222 
TCOON,ioos:station:TCOON:524:1,2019-05-05T01:24:00Z,29.8672,-93.9310,1.735,11111222 
TCOON,ioos:station:TCOON:524:1,2019-05-05T02:24:00Z,29.8672,-93.9310,1.685,11111222 
TCOON,ioos:station:TCOON:524:1,2019-05-05T03:24:00Z,29.8672,-93.9310,1.603,11111222 
TCOON,ioos:station:TCOON:524:1,2019-05-05T04:24:00Z,29.8672,-93.9310,1.624,11111222 
TCOON,ioos:station:TCOON:524:1,2019-05-05T05:24:00Z,29.8672,-93.9310,1.659,11111222 
TCOON,ioos:station:TCOON:524:1,2019-05-05T06:24:00Z,29.8672,-93.9310,1.653,11111222 
TCOON,ioos:station:TCOON:524:1,2019-05-05T07:24:00Z,29.8672,-93.9310,1.67,11111222 
TCOON,ioos:station:TCOON:524:1,2019-05-05T08:24:00Z,29.8672,-93.9310,1.734,11111222 
TCOON,ioos:station:TCOON:524:1,2019-05-05T09:30:00Z,29.8672,-93.9310,1.795,11111222 
TCOON,ioos:station:TCOON:524:1,2019-05-05T10:30:00Z,29.8672,-93.9310,1.861,11111222 
TCOON,ioos:station:TCOON:524:1,2019-05-05T11:24:00Z,29.8672,-93.9310,1.889,11111222 
TCOON,ioos:station:TCOON:524:1,2019-05-05T12:30:00Z,29.8672,-93.9310,1.916,11111222 
TCOON,ioos:station:TCOON:524:1,2019-05-05T13:30:00Z,29.8672,-93.9310,1.948,11111222 
TCOON,ioos:station:TCOON:524:1,2019-05-05T14:30:00Z,29.8672,-93.9310,1.954,11111222 
TCOON,ioos:station:TCOON:524:1,2019-05-05T15:30:00Z,29.8672,-93.9310,1.909,11111222 
TCOON,ioos:station:TCOON:524:1,2019-05-05T16:30:00Z,29.8672,-93.9310,1.871,11111222 
TCOON,ioos:station:TCOON:524:1,2019-05-05T17:30:00Z,29.8672,-93.9310,1.853,11111222 
TCOON,ioos:station:TCOON:524:1,2019-05-05T18:30:00Z,29.8672,-93.9310,1.88,11111222 
TCOON,ioos:station:TCOON:524:1,2019-05-05T19:24:00Z,29.8672,-93.9310,1.863,11111222 
TCOON,ioos:station:TCOON:524:1,2019-05-05T20:24:00Z,29.8672,-93.9310,1.863,11111222 
TCOON,ioos:station:TCOON:524:1,2019-05-05T21:24:00Z,29.8672,-93.9310,1.885,11111222 
TCOON,ioos:station:TCOON:524:1,2019-05-05T22:24:00Z,29.8672,-93.9310,1.862,11111222 
TCOON,ioos:station:TCOON:524:1,2019-05-05T23:24:00Z,29.8672,-93.9310,1.831,11111222 
TCOON,ioos:station:TCOON:524:1,2019-05-06T00:24:00Z,29.8672,-93.9310,1.77,11111222 
TCOON,ioos:station:TCOON:524:1,2019-05-06T01:24:00Z,29.8672,-93.9310,1.732,11111222 
TCOON,ioos:station:TCOON:524:1,2019-05-06T02:24:00Z,29.8672,-93.9310,1.698,11111222 
TCOON,ioos:station:TCOON:524:1,2019-05-06T03:24:00Z,29.8672,-93.9310,1.622,11111222 
TCOON,ioos:station:TCOON:524:1,2019-05-06T04:24:00Z,29.8672,-93.9310,1.621,11111222 
TCOON,ioos:station:TCOON:524:1,2019-05-06T05:24:00Z,29.8672,-93.9310,1.595,11111222 
TCOON,ioos:station:TCOON:524:1,2019-05-06T06:24:00Z,29.8672,-93.9310,1.615,11111222 
TCOON,ioos:station:TCOON:524:1,2019-05-06T07:24:00Z,29.8672,-93.9310,1.67,11111222 
TCOON,ioos:station:TCOON:524:1,2019-05-06T08:24:00Z,29.8672,-93.9310,1.651,11111222 
TCOON,ioos:station:TCOON:524:1,2019-05-06T09:24:00Z,29.8672,-93.9310,1.794,11111222 
TCOON,ioos:station:TCOON:524:1,2019-05-06T10:24:00Z,29.8672,-93.9310,1.868,11111222 
TCOON,ioos:station:TCOON:524:1,2019-05-06T11:24:00Z,29.8672,-93.9310,1.901,11111222 
TCOON,ioos:station:TCOON:524:1,2019-05-06T12:24:00Z,29.8672,-93.9310,1.926,11111222 
TCOON,ioos:station:TCOON:524:1,2019-05-06T13:24:00Z,29.8672,-93.9310,1.94,11111222 
TCOON,ioos:station:TCOON:524:1,2019-05-06T14:24:00Z,29.8672,-93.9310,1.964,11111222 
TCOON,ioos:station:TCOON:524:1,2019-05-06T15:24:00Z,29.8672,-93.9310,1.951,11111222 
TCOON,ioos:station:TCOON:524:1,2019-05-06T16:24:00Z,29.8672,-93.9310,1.937,11111222 
TCOON,ioos:station:TCOON:524:1,2019-05-06T17:24:00Z,29.8672,-93.9310,1.936,11111222 
TCOON,ioos:station:TCOON:524:1,2019-05-06T18:24:00Z,29.8672,-93.9310,1.894,11111222 
TCOON,ioos:station:TCOON:524:1,2019-05-06T19:24:00Z,29.8672,-93.9310,1.942,11111222 
TCOON,ioos:station:TCOON:524:1,2019-05-06T20:24:00Z,29.8672,-93.9310,1.923,11111222 
TCOON,ioos:station:TCOON:524:1,2019-05-06T21:24:00Z,29.8672,-93.9310,1.936,11111222 
TCOON,ioos:station:TCOON:524:1,2019-05-06T22:24:00Z,29.8672,-93.9310,1.906,11111222 
TCOON,ioos:station:TCOON:524:1,2019-05-06T23:24:00Z,29.8672,-93.9310,1.875,11111222 
TCOON,ioos:station:TCOON:524:1,2019-05-07T00:24:00Z,29.8672,-93.9310,1.886,11111222 
TCOON,ioos:station:TCOON:524:1,2019-05-07T01:24:00Z,29.8672,-93.9310,1.831,11111222 
TCOON,ioos:station:TCOON:524:1,2019-05-07T02:24:00Z,29.8672,-93.9310,1.762,11111222 
TCOON,ioos:station:TCOON:524:1,2019-05-07T03:24:00Z,29.8672,-93.9310,1.67,11111222 
TCOON,ioos:station:TCOON:524:1,2019-05-07T04:24:00Z,29.8672,-93.9310,1.647,11111222 
TCOON,ioos:station:TCOON:524:1,2019-05-07T05:24:00Z,29.8672,-93.9310,1.697,11111222 
TCOON,ioos:station:TCOON:524:1,2019-05-07T06:24:00Z,29.8672,-93.9310,1.629,11111222 
TCOON,ioos:station:TCOON:524:1,2019-05-07T07:24:00Z,29.8672,-93.9310,1.694,11111222 
TCOON,ioos:station:TCOON:524:1,2019-05-07T08:24:00Z,29.8672,-93.9310,1.789,11111222 
TCOON,ioos:station:TCOON:524:1,2019-05-07T09:24:00Z,29.8672,-93.9310,1.822,11111222 
TCOON,ioos:station:TCOON:524:1,2019-05-07T10:24:00Z,29.8672,-93.9310,1.899,11111222 
TCOON,ioos:station:TCOON:524:1,2019-05-07T11:24:00Z,29.8672,-93.9310,1.958,11111222 
TCOON,ioos:station:TCOON:524:1,2019-05-07T12:24:00Z,29.8672,-93.9310,1.988,11111222 
TCOON,ioos:station:TCOON:524:1,2019-05-07T13:30:00Z,29.8672,-93.9310,2.025,11111222 
TCOON,ioos:station:TCOON:524:1,2019-05-07T14:30:00Z,29.8672,-93.9310,2.044,11111222 
TCOON,ioos:station:TCOON:524:1,2019-05-07T15:24:00Z,29.8672,-93.9310,2.025,11111222 
TCOON,ioos:station:TCOON:524:1,2019-05-07T16:24:00Z,29.8672,-93.9310,2.044,11111222 
TCOON,ioos:station:TCOON:524:1,2019-05-07T17:24:00Z,29.8672,-93.9310,2.035,11111222 
TCOON,ioos:station:TCOON:524:1,2019-05-07T18:30:00Z,29.8672,-93.9310,2.048,11111222 
TCOON,ioos:station:TCOON:524:1,2019-05-07T19:24:00Z,29.8672,-93.9310,2.054,11111222 
TCOON,ioos:station:TCOON:524:1,2019-05-07T20:24:00Z,29.8672,-93.9310,2.045,11111222 
TCOON,ioos:station:TCOON:524:1,2019-05-07T21:24:00Z,29.8672,-93.9310,2.054,11111222 
TCOON,ioos:station:TCOON:524:1,2019-05-07T22:24:00Z,29.8672,-93.9310,2.082,11111222 
TCOON,ioos:station:TCOON:524:1,2019-05-07T23:24:00Z,29.8672,-93.9310,2.08,11111222 
TCOON,ioos:station:TCOON:524:1,2019-05-08T00:24:00Z,29.8672,-93.9310,1.956,11111222 
TCOON,ioos:station:TCOON:524:1,2019-05-08T01:24:00Z,29.8672,-93.9310,1.955,11111222 
TCOON,ioos:station:TCOON:524:1,2019-05-08T02:24:00Z,29.8672,-93.9310,1.93,11111222 
TCOON,ioos:station:TCOON:524:1,2019-05-08T03:24:00Z,29.8672,-93.9310,1.845,11111222 
TCOON,ioos:station:TCOON:524:1,2019-05-08T04:24:00Z,29.8672,-93.9310,1.792,11111222 
TCOON,ioos:station:TCOON:524:1,2019-05-08T05:24:00Z,29.8672,-93.9310,1.752,11111222 
TCOON,ioos:station:TCOON:524:1,2019-05-08T06:24:00Z,29.8672,-93.9310,1.735,11111222 
TCOON,ioos:station:TCOON:524:1,2019-05-08T07:24:00Z,29.8672,-93.9310,1.762,11111222 
TCOON,ioos:station:TCOON:524:1,2019-05-08T08:24:00Z,29.8672,-93.9310,1.853,11111222 
TCOON,ioos:station:TCOON:524:1,2019-05-08T09:24:00Z,29.8672,-93.9310,1.821,11111222 
TCOON,ioos:station:TCOON:524:1,2019-05-08T10:24:00Z,29.8672,-93.9310,1.933,11111222 
TCOON,ioos:station:TCOON:524:1,2019-05-08T11:24:00Z,29.8672,-93.9310,2.03,11111222 
TCOON,ioos:station:TCOON:524:1,2019-05-08T12:24:00Z,29.8672,-93.9310,2.114,11111222 
TCOON,ioos:station:TCOON:524:1,2019-05-08T13:24:00Z,29.8672,-93.9310,2.138,11111222 
TCOON,ioos:station:TCOON:524:1,2019-05-08T14:24:00Z,29.8672,-93.9310,2.141,11111222 
TCOON,ioos:station:TCOON:524:1,2019-05-08T15:24:00Z,29.8672,-93.9310,2.135,11111222 
TCOON,ioos:station:TCOON:524:1,2019-05-08T16:18:00Z,29.8672,-93.9310,2.169,11111222 
TCOON,ioos:station:TCOON:524:1,2019-05-08T17:24:00Z,29.8672,-93.9310,2.185,11111222 
TCOON,ioos:station:TCOON:524:1,2019-05-08T18:24:00Z,29.8672,-93.9310,2.201,11111222 
TCOON,ioos:station:TCOON:524:1,2019-05-08T19:24:00Z,29.8672,-93.9310,2.228,11111222 
TCOON,ioos:station:TCOON:524:1,2019-05-08T20:24:00Z,29.8672,-93.9310,2.232,11111222 
TCOON,ioos:station:TCOON:524:1,2019-05-08T21:24:00Z,29.8672,-93.9310,2.205,11111222 
TCOON,ioos:station:TCOON:524:1,2019-05-08T22:24:00Z,29.8672,-93.9310,2.248,11111222 
TCOON,ioos:station:TCOON:524:1,2019-05-08T23:24:00Z,29.8672,-93.9310,2.24,11111222 
TCOON,ioos:station:TCOON:524:1,2019-05-09T00:24:00Z,29.8672,-93.9310,2.185,11111222 
TCOON,ioos:station:TCOON:524:1,2019-05-09T01:24:00Z,29.8672,-93.9310,2.152,11111222 
TCOON,ioos:station:TCOON:524:1,2019-05-09T02:24:00Z,29.8672,-93.9310,2.126,11111222 
TCOON,ioos:station:TCOON:524:1,2019-05-09T03:24:00Z,29.8672,-93.9310,2.084,11111222 
TCOON,ioos:station:TCOON:524:1,2019-05-09T04:24:00Z,29.8672,-93.9310,2.009,11111222 
TCOON,ioos:station:TCOON:524:1,2019-05-09T05:24:00Z,29.8672,-93.9310,1.972,11111222 
TCOON,ioos:station:TCOON:524:1,2019-05-09T06:24:00Z,29.8672,-93.9310,1.936,11111222 
TCOON,ioos:station:TCOON:524:1,2019-05-09T07:24:00Z,29.8672,-93.9310,1.905,11111222 
TCOON,ioos:station:TCOON:524:1,2019-05-09T08:24:00Z,29.8672,-93.9310,1.916,11111222 
TCOON,ioos:station:TCOON:524:1,2019-05-09T09:24:00Z,29.8672,-93.9310,1.943,11111222 
TCOON,ioos:station:TCOON:524:1,2019-05-09T10:24:00Z,29.8672,-93.9310,1.958,11111222 
TCOON,ioos:station:TCOON:524:1,2019-05-09T11:24:00Z,29.8672,-93.9310,1.988,11111222 
TCOON,ioos:station:TCOON:524:1,2019-05-09T12:24:00Z,29.8672,-93.9310,2.088,11111222 
TCOON,ioos:station:TCOON:524:1,2019-05-09T13:24:00Z,29.8672,-93.9310,2.134,11111222 
TCOON,ioos:station:TCOON:524:1,2019-05-09T14:24:00Z,29.8672,-93.9310,2.195,11111222 
TCOON,ioos:station:TCOON:524:1,2019-05-09T15:24:00Z,29.8672,-93.9310,2.184,11111222 
TCOON,ioos:station:TCOON:524:1,2019-05-09T16:24:00Z,29.8672,-93.9310,2.212,11111222 
TCOON,ioos:station:TCOON:524:1,2019-05-09T17:24:00Z,29.8672,-93.9310,2.208,11111222 
TCOON,ioos:station:TCOON:524:1,2019-05-09T18:24:00Z,29.8672,-93.9310,2.125,11111222 
TCOON,ioos:station:TCOON:524:1,2019-05-09T19:24:00Z,29.8672,-93.9310,2.111,11111222 
TCOON,ioos:station:TCOON:524:1,2019-05-09T20:24:00Z,29.8672,-93.9310,2.148,11111222 
TCOON,ioos:station:TCOON:524:1,2019-05-09T21:24:00Z,29.8672,-93.9310,2.114,11111222 
TCOON,ioos:station:TCOON:524:1,2019-05-09T22:24:00Z,29.8672,-93.9310,2.061,11111222 
TCOON,ioos:station:TCOON:524:1,2019-05-09T23:24:00Z,29.8672,-93.9310,2.115,11111222 
TCOON,ioos:station:TCOON:524:1,2019-05-10T00:24:00Z,29.8672,-93.9310,2.099,11111222 
TCOON,ioos:station:TCOON:524:1,2019-05-10T01:24:00Z,29.8672,-93.9310,1.915,11111222 
TCOON,ioos:station:TCOON:524:1,2019-05-10T02:24:00Z,29.8672,-93.9310,2.038,11111222 
TCOON,ioos:station:TCOON:524:1,2019-05-10T03:24:00Z,29.8672,-93.9310,1.988,11111222 
TCOON,ioos:station:TCOON:524:1,2019-05-10T04:24:00Z,29.8672,-93.9310,1.945,11111222 
TCOON,ioos:station:TCOON:524:1,2019-05-10T05:54:00Z,29.8672,-93.9310,1.952,11111222 
TCOON,ioos:station:TCOON:524:1,2019-05-10T06:24:00Z,29.8672,-93.9310,1.859,11111222 
TCOON,ioos:station:TCOON:524:1,2019-05-10T07:24:00Z,29.8672,-93.9310,2.025,11111222 
TCOON,ioos:station:TCOON:524:1,2019-05-10T08:24:00Z,29.8672,-93.9310,1.937,11111222 
TCOON,ioos:station:TCOON:524:1,2019-05-10T09:24:00Z,29.8672,-93.9310,1.736,11111222 
TCOON,ioos:station:TCOON:524:1,2019-05-10T10:24:00Z,29.8672,-93.9310,1.852,11111222 
TCOON,ioos:station:TCOON:524:1,2019-05-10T11:24:00Z,29.8672,-93.9310,1.895,11111222 
TCOON,ioos:station:TCOON:524:1,2019-05-10T12:24:00Z,29.8672,-93.9310,1.768,11111222 
TCOON,ioos:station:TCOON:524:1,2019-05-10T13:24:00Z,29.8672,-93.9310,1.855,11111222 
TCOON,ioos:station:TCOON:524:1,2019-05-10T14:24:00Z,29.8672,-93.9310,2.023,11111222 
TCOON,ioos:station:TCOON:524:1,2019-05-10T15:24:00Z,29.8672,-93.9310,2.005,11111222 
TCOON,ioos:station:TCOON:524:1,2019-05-10T16:24:00Z,29.8672,-93.9310,2.198,11111222 
TCOON,ioos:station:TCOON:524:1,2019-05-10T17:24:00Z,29.8672,-93.9310,2.109,11111222 
TCOON,ioos:station:TCOON:524:1,2019-05-10T18:24:00Z,29.8672,-93.9310,2.267,11111222 
TCOON,ioos:station:TCOON:524:1,2019-05-10T19:24:00Z,29.8672,-93.9310,2.223,11111222 
TCOON,ioos:station:TCOON:524:1,2019-05-10T20:24:00Z,29.8672,-93.9310,2.227,11111222 
TCOON,ioos:station:TCOON:524:1,2019-05-10T21:24:00Z,29.8672,-93.9310,2.249,11111222 
TCOON,ioos:station:TCOON:524:1,2019-05-10T22:24:00Z,29.8672,-93.9310,2.181,11111222 
TCOON,ioos:station:TCOON:524:1,2019-05-10T23:24:00Z,29.8672,-93.9310,2.165,11111222 
TCOON,ioos:station:TCOON:524:1,2019-05-11T00:24:00Z,29.8672,-93.9310,2.167,11111222 
TCOON,ioos:station:TCOON:524:1,2019-05-11T01:24:00Z,29.8672,-93.9310,2.096,11111222 
TCOON,ioos:station:TCOON:524:1,2019-05-11T02:24:00Z,29.8672,-93.9310,2.087,11111222 
TCOON,ioos:station:TCOON:524:1,2019-05-11T03:24:00Z,29.8672,-93.9310,2.074,11111222 
TCOON,ioos:station:TCOON:524:1,2019-05-11T04:24:00Z,29.8672,-93.9310,2.047,11111222 
TCOON,ioos:station:TCOON:524:1,2019-05-11T05:24:00Z,29.8672,-93.9310,2.027,11111222 
TCOON,ioos:station:TCOON:524:1,2019-05-11T06:24:00Z,29.8672,-93.9310,1.971,11111222 
TCOON,ioos:station:TCOON:524:1,2019-05-11T07:24:00Z,29.8672,-93.9310,1.929,11111222 
TCOON,ioos:station:TCOON:524:1,2019-05-11T08:24:00Z,29.8672,-93.9310,1.876,11111222 
TCOON,ioos:station:TCOON:524:1,2019-05-11T09:24:00Z,29.8672,-93.9310,1.813,11111222 
TCOON,ioos:station:TCOON:524:1,2019-05-11T10:24:00Z,29.8672,-93.9310,1.825,11111222 
TCOON,ioos:station:TCOON:524:1,2019-05-11T11:24:00Z,29.8672,-93.9310,1.845,11111222 
TCOON,ioos:station:TCOON:524:1,2019-05-11T12:24:00Z,29.8672,-93.9310,1.909,11111222 
TCOON,ioos:station:TCOON:524:1,2019-05-13T13:30:00Z,29.8672,-93.9310,1.815,11111222 
TCOON,ioos:station:TCOON:524:1,2019-05-13T14:24:00Z,29.8672,-93.9310,1.864,11111222 
TCOON,ioos:station:TCOON:524:1,2019-05-13T15:24:00Z,29.8672,-93.9310,1.885,11111222 
TCOON,ioos:station:TCOON:524:1,2019-05-13T16:24:00Z,29.8672,-93.9310,1.938,11111222 
TCOON,ioos:station:TCOON:524:1,2019-05-13T17:24:00Z,29.8672,-93.9310,2.017,11111222 
TCOON,ioos:station:TCOON:524:1,2019-05-13T18:24:00Z,29.8672,-93.9310,2.063,11111222 
TCOON,ioos:station:TCOON:524:1,2019-05-13T19:24:00Z,29.8672,-93.9310,2.067,11111222 
TCOON,ioos:station:TCOON:524:1,2019-05-13T20:24:00Z,29.8672,-93.9310,1.964,11111222 
TCOON,ioos:station:TCOON:524:1,2019-05-13T21:24:00Z,29.8672,-93.9310,2.076,11111222 
TCOON,ioos:station:TCOON:524:1,2019-05-13T22:24:00Z,29.8672,-93.9310,2.013,11111222 
TCOON,ioos:station:TCOON:524:1,2019-05-13T23:24:00Z,29.8672,-93.9310,1.984,11111222 
TCOON,ioos:station:TCOON:524:1,2019-05-14T00:24:00Z,29.8672,-93.9310,1.953,11111222 
TCOON,ioos:station:TCOON:524:1,2019-05-14T01:24:00Z,29.8672,-93.9310,1.97,11111222 
TCOON,ioos:station:TCOON:524:1,2019-05-14T02:24:00Z,29.8672,-93.9310,1.918,11111222 
TCOON,ioos:station:TCOON:524:1,2019-05-14T03:24:00Z,29.8672,-93.9310,1.958,11111222 
TCOON,ioos:station:TCOON:524:1,2019-05-14T04:24:00Z,29.8672,-93.9310,2.001,11111222 
TCOON,ioos:station:TCOON:524:1,2019-05-14T05:24:00Z,29.8672,-93.9310,2.02,11111222 
TCOON,ioos:station:TCOON:524:1,2019-05-14T06:24:00Z,29.8672,-93.9310,2.001,11111222 
TCOON,ioos:station:TCOON:524:1,2019-05-14T07:24:00Z,29.8672,-93.9310,1.997,11111222 
TCOON,ioos:station:TCOON:524:1,2019-05-14T08:24:00Z,29.8672,-93.9310,1.999,11111222 
TCOON,ioos:station:TCOON:524:1,2019-05-14T09:24:00Z,29.8672,-93.9310,1.966,11111222 
TCOON,ioos:station:TCOON:524:1,2019-05-14T10:24:00Z,29.8672,-93.9310,1.927,11111222 
TCOON,ioos:station:TCOON:524:1,2019-05-14T11:24:00Z,29.8672,-93.9310,1.895,11111222 
TCOON,ioos:station:TCOON:524:1,2019-05-14T12:24:00Z,29.8672,-93.9310,1.869,11111222 
TCOON,ioos:station:TCOON:524:1,2019-05-14T13:24:00Z,29.8672,-93.9310,1.872,11111222 
TCOON,ioos:station:TCOON:524:1,2019-05-14T14:24:00Z,29.8672,-93.9310,1.891,11111222 
TCOON,ioos:station:TCOON:524:1,2019-05-14T15:24:00Z,29.8672,-93.9310,1.924,11111222 
TCOON,ioos:station:TCOON:524:1,2019-05-14T16:24:00Z,29.8672,-93.9310,1.969,11111222 